CST,Max TemperatureF,Mean TemperatureF,Min TemperatureF,Max Dew PointF,MeanDew PointF,Min DewpointF,Max Humidity, Mean Humidity, Min Humidity, Max Sea Level PressureIn, Mean Sea Level PressureIn, Min Sea Level PressureIn, Max VisibilityMiles, Mean VisibilityMiles, Min VisibilityMiles, Max Wind SpeedMPH, Mean Wind SpeedMPH, Max Gust SpeedMPH,PrecipitationIn, CloudCover, Events, WindDirDegrees
2013-11-1,53,44,35,39,39,36,100,87,58,29.89,29.65,29.46,10,10,7,21,12,25,0.00,4,Rain,298
2013-11-2,50,40,30,39,35,30,100,83,58,30.09,30.03,29.89,10,10,5,16,9,21,0.00,1,,295
2013-11-3,55,44,33,36,33,30,93,66,38,30.07,29.92,29.81,10,10,10,33,14,43,0.00,0,,154
2013-11-4,48,39,30,45,37,28,93,80,62,30.16,29.91,29.77,10,10,10,23,15,29,0.06,2,Rain,223
2013-11-5,39,32,24,34,30,25,100,90,65,30.22,30.13,30.02,10,8,1,15,3,24,0.14,3,Snow,9
2013-11-6,33,28,23,30,26,21,100,92,70,30.20,30.12,30.02,10,10,5,16,10,22,0.00,3,Snow,276
2013-11-7,35,26,17,28,24,18,100,92,70,30.27,30.22,30.17,10,10,5,17,8,,0.00,0,,260
2013-11-8,46,34,23,41,31,21,100,82,61,30.19,29.87,29.61,10,10,10,23,9,32,0.00,1,,172
2013-11-9,46,38,30,41,34,27,100,78,57,30.27,29.98,29.69,10,10,10,31,16,37,0.00,4,,294
2013-11-10,39,32,24,34,29,25,100,83,70,30.35,30.24,30.07,10,10,10,20,10,25,0.00,5,,238
2013-11-11,35,24,12,32,14,9,93,72,54,30.75,30.45,30.11,10,10,2,20,12,28,0.00,2,Snow,343
2013-11-12,26,16,6,16,10,3,92,76,50,30.79,30.67,30.43,10,10,10,12,7,,0.00,0,,243
2013-11-13,53,36,19,36,26,14,87,68,47,30.41,30.07,29.88,10,10,7,20,10,28,0.00,0,,202
2013-11-14,57,44,32,41,34,28,93,80,48,29.88,29.83,29.76,10,10,7,17,6,,0.00,1,,239
2013-11-15,55,42,28,41,35,28,100,81,54,29.83,29.75,29.59,10,10,10,17,6,22,0.00,0,,179
2013-11-16,51,45,39,52,43,36,100,95,81,29.58,29.37,29.22,10,7,2,17,12,24,0.00,0,Rain,173
2013-11-17,46,39,30,41,36,27,100,89,71,29.90,29.54,29.32,10,10,5,29,13,38,0.00,2,,297
2013-11-18,35,28,21,27,22,19,93,74,60,30.24,30.12,29.91,10,10,10,26,15,31,0.00,2,,304
2013-11-19,48,34,21,34,29,19,93,72,53,30.22,30.00,29.84,10,10,10,28,14,37,0.00,0,,154
2013-11-20,46,40,33,36,33,28,100,73,61,30.02,29.88,29.82,10,9,4,21,15,28,0.00,3,,156
2013-11-21,35,27,17,34,20,12,100,84,74,30.53,30.29,30.02,10,8,1,24,14,31,0.00,6,Snow,326
2013-11-22,35,20,5,12,8,1,92,65,30,30.65,30.55,30.46,10,10,10,23,13,33,0.00,1,,295
2013-11-23,15,8,1,3,1,-2,92,73,49,30.87,30.77,30.66,10,10,10,20,12,26,0.00,0,,316
2013-11-24,35,19,3,18,10,0,85,64,44,30.68,30.30,29.98,10,10,10,24,12,32,0.00,0,,190
2013-11-25,41,34,26,27,23,18,93,66,49,30.11,30.01,29.93,10,10,10,22,16,30,0.00,4,,284
2013-11-26,30,19,8,21,10,5,85,65,54,30.39,30.26,30.11,10,10,10,28,19,34,0.00,3,,327
2013-11-27,23,12,1,10,6,0,92,74,54,30.39,30.21,30.01,10,10,10,17,7,22,0.00,1,,163
2013-11-28,32,20,8,16,10,1,92,70,51,30.48,30.29,30.02,10,10,10,22,7,25,0.00,1,,317
2013-11-29,33,20,6,21,14,3,92,74,52,30.49,30.31,30.09,10,10,10,21,6,25,0.00,0,,162
2013-11-30,42,30,19,28,23,19,100,77,53,30.17,30.07,30.01,10,10,7,16,9,20,0.00,2,,287